Regional Weather Roundup
Issued by NWS Charleston, SC

Current Version | Previous Version | Graphics & Text | Print | Product List | Glossary On
Versions: 1 2 3 4 5 6 7 8 9 10 11 12 13 14 15 16 17 18 19 20 21 22 23 24 25 26 27 28 29 30 31 32 33 34 35 36 37 38 39 40 41 42 43 44 45 46 47 48 49 50
000 ASUS42 KCHS 191227 RWRCHS REGIONAL WEATHER ROUNDUP NATIONAL WEATHER SERVICE CHARLESTON SC 700 AM EST SUN NOV 19 2017 NOTE: "FAIR" INDICATES FEW OR NO CLOUDS BELOW 12,000 FEET WITH NO SIGNIFICANT WEATHER AND/OR OBSTRUCTIONS TO VISIBILITY. NOT ALL STATIONS ARE QUALITY CONTROLLED. USE DATA WITH CAUTION... ESPECIALLY DEWPOINT OBSERVATIONS. SCZ027-030-031-034>040-042>050-191300- ...SOUTHEAST SOUTH CAROLINA... CITY SKY/WX TMP DP RH WIND PRES REMARKS N CHARLESTON CLOUDY 62 59 90 W12 29.78R 6HR MIN TEMP: 62; 6HR MAX TEMP: 66; WATERFRONT PRK NOT AVBL JOHNS ISLAND CLOUDY 63 59 88 W10G20 29.80R PINOPOLIS N/A 63 59 88 W9 29.66R MONCKS CORNER CLOUDY 61 54 77 NW5 29.78R SUMMERVILLE CLOUDY 61 55 82 SW7 29.79R BEAUFORT MCAS NOT AVBL BEAUFORT ARPT CLOUDY 61 55 82 W13 29.82R HILTON HEAD IS CLOUDY 64 61 88 W7 29.82 WALTERBORO CLOUDY 59 54 82 W13G18 29.82R ALLENDALE PTSUNNY 55 48 76 NW9G17 29.84R ...SOUTHERN MIDLANDS AND PEE DEE... CITY SKY/WX TMP DP RH WIND PRES REMARKS GEORGETOWN CLOUDY 63 61 94 W8 29.75S KINGSTREE FAIR 59 55 88 W6 29.76R ORANGEBURG CLOUDY 58 52 80 W12G17 29.79R 6HR MIN TEMP: 58; 6HR MAX TEMP: 64; 6HR PCP: 0.02; BARNWELL N/A 55 50 82 W12 29.84R AIKEN FAIR 48 43 81 W8 29.88R MANNING FAIR 59 57 94 MISG 29.77R COLUMBIA PTCLDY 56 49 77 W14 29.80R 6HR MIN TEMP: 56; 6HR MAX TEMP: 67; 6HR PCP: TRACE; SUMTER CLOUDY 59 45 58 NW15G31 29.75R 6HR MIN TEMP: 60; 6HR MAX TEMP: 65; 6HR PCP: TRACE; FLORENCE CLOUDY 63 55 75 W14 29.74R 6HR MIN TEMP: 64; 6HR MAX TEMP: 67; 6HR PCP: TRACE; MYRTLE BEACH CLOUDY 63 59 87 W14 29.74R N MYRTLE BEACH CLOUDY 63 60 90 SW10 29.71S 6HR MIN TEMP: 63; 6HR MAX TEMP: 67; 6HR PCP: 0.02; $$ GAZ063-065-086>088-099>101-113>116-118-119-134>141-150-191300- ...SOUTHEAST GEORGIA... CITY SKY/WX TMP DP RH WIND PRES REMARKS SAVANNAH ARPT CLOUDY 60 57 89 W9 29.85R 6HR MIN TEMP: 60; 6HR MAX TEMP: 66; 6HR PCP: TRACE; HUNTER AAF MOCLDY 61 57 88 W8 29.80S 6HR MIN TEMP: 61; 6HR MAX TEMP: 65; 6HR PCP: TRACE; FORT STEWART CLOUDY 61 55 82 W9 29.83R 6HR MIN TEMP: 60; 6HR MAX TEMP: 65; 6HR PCP: TRACE; STATESBORO CLOUDY 56 46 69 NW16G25 29.88R SYLVANIA CLOUDY 58 53 83 NW17G23 29.86R CLAXTON PTSUNNY 58 53 82 W12G21 29.87R ...CSRA...CENTRAL AND FAR SOUTHEAST GEORGIA... CITY SKY/WX TMP DP RH WIND PRES REMARKS THOMSON CLOUDY 48 39 72 N13 29.93R AUGUSTA-BUSH PTCLDY 53 44 71 NW12G21 29.85R 6HR MIN TEMP: 53; 6HR MAX TEMP: 67; 6HR PCP: 0.01; AUGUSTA-DANIEL PTCLDY 52 42 69 W9G18 29.86R SWAINSBORO FAIR 52 46 82 NW13 29.91R VIDALIA CLOUDY 54 50 87 NW13G20 29.91R EASTMAN FAIR 52 38 58 NW6 29.97R HAZLEHURST PTSUNNY 55 43 64 NW5 29.91R ALMA CLOUDY 58 50 75 NW16 29.90R 6HR MIN TEMP: 59; 6HR MAX TEMP: 66; 6HR PCP: 0.02; WAYCROSS CLOUDY 62 57 83 N10 29.89R JESUP CLOUDY 63 54 72 NW12G18 29.88R BAXLEY CLOUDY 55 54 94 NW13G20 29.90R BRUNSWICK CLOUDY 64 61 88 W5 29.85R SAINT SIMONS CLOUDY 65 64 97 W8 29.84S 6HR MIN TEMP: 64; 6HR MAX TEMP: 66; 6HR PCP: 0.01; $$ SCZ027-028-034-036>038-045-046-048>050-GAZ119-141-191300- ...LAKE AND SUPPLEMENTAL COASTAL OBSERVATIONS... STATION/POSITION TIME TEMP WIND PRES WAVE SWELL AIR SEA DIR/SP/G HT/PER HT/PER/DIR (UTC) (F) (DEG/KT/KT) (MB) (FT/S) (FT/S/D) WINYAH BAY 1145 65 230/ 9 1007.0S LAKE MURRAY 1220 55 310/ 6/ 14 1009.5 ACE BASIN NERRS 1145 61 250/ 4 1009.0S FORT PULASKI NOT AVBL SAPELO ISLAND 1200 65 260/ 7 1010.0 $$ ANZ835-935-AMZ111-154-330-350-352-354-370-450-454-472-191300- ...C-MAN AND BUOY OBSERVATIONS... STATION/POSITION TIME TEMP WIND PRES WAVE SWELL AIR SEA DIR/SP/G HT/PER HT/PER/DIR (UTC) (F) (DEG/KT/KT) (MB) (FT/S) (FT/S/D) BUOY 41004 1210 71 75 250/ 29/ 39 1007.5 BUOY 41008 1150 67 69 210/ 19/ 25 1009.2R 5/ 5 2/110/10 FOLLY BEACH CMAN 1100 64 260/ 8/ 11 1008.9R CAPERS NEARSHORE 1208 60 63 230/ 12/ 19 1007.3F FRIPP NEARSHORE 1208 61 63 270/ 17/ 29 1009.2F STATION/POSITION TIME TEMP WIND PRES WAVE SWELL AIR SEA DIR/SP/G HT/PER HT/PER/DIR (UTC) (F) (DEG/KT/KT) (MB) (FT/S) (FT/S/D) 5E ST. MARYS GA 1200 66 N/A 3/ 4 FRYING PAN BUOY 1210 69 72 260/ 25/ 33 1006.4 BUOY 41025 1210 71 65 220/ 27/ 33 1003.5 CAPE LOOKOUT NC 1100 220/ 16/ 20 1004.1F BUOY 41002 1150 75 77 210/ 21/ 25 1010.2F 5/ 5 2/ 30/10 BUOY 41010 NOT AVBL ST AUGUSTINE FL 1200 65 68 210/ 9/ 12 1011.4F $$

USA.gov is the U.S. government's official web portal to all federal, state and local government web resources and services.